Date,TemperatureHighF,TemperatureAvgF,TemperatureLowF,DewpointHighF,DewpointAvgF,DewpointLowF,HumidityHigh,HumidityAvg,HumidityLow,PressureMaxIn,PressureMinIn,WindSpeedMaxMPH,WindSpeedAvgMPH,GustSpeedMaxMPH,PrecipitationSumIn
2013-2-1,47.0,27.3,14.0,19.0,13.2,8.0,82,58,32,30.39,30.11,5,2,0,0.00
2013-2-2,53.0,39.3,25.0,33.0,26.4,18.0,81,61,43,30.18,30.10,10,3,0,0.00
2013-2-3,54.0,44.6,38.0,32.0,26.8,21.0,68,51,30,30.18,29.88,8,3,0,0.00
2013-2-4,60.0,49.3,40.0,46.0,37.5,26.0,85,65,49,29.88,29.71,10,3,0,0.00
2013-2-5,64.0,46.6,31.0,50.0,34.9,29.0,95,68,32,29.95,29.80,8,2,0,0.00
2013-2-6,65.0,50.3,37.0,43.0,37.0,31.0,83,62,43,29.99,29.84,6,2,0,0.00
2013-2-7,56.0,50.8,44.0,53.0,47.6,40.0,96,89,79,29.97,29.74,8,3,0,0.00
2013-2-8,53.0,41.7,33.0,41.0,32.8,30.0,89,73,42,30.19,29.96,6,3,0,0.00
2013-2-9,47.0,40.3,34.0,42.0,33.5,28.0,93,78,48,30.12,29.74,7,4,0,0.00
2013-2-10,59.0,52.1,42.0,53.0,39.2,27.0,96,66,34,29.92,29.54,14,8,0,0.00
2013-2-11,54.0,40.4,30.0,29.0,27.2,25.0,84,61,35,30.09,29.92,7,2,0,0.00
2013-2-12,46.0,38.5,33.0,35.0,29.8,26.0,95,72,53,30.05,29.82,5,2,0,0.00
2013-2-13,51.0,39.9,33.0,38.0,33.3,32.0,97,79,50,29.93,29.84,8,4,0,0.00
2013-2-14,57.0,45.0,32.0,37.0,32.4,28.0,85,62,45,30.06,29.86,6,3,0,0.00
2013-2-15,44.0,35.3,25.0,31.0,22.2,14.0,82,60,36,30.23,30.06,9,4,0,0.00
2013-2-16,37.0,31.6,24.0,25.0,20.7,16.0,86,66,47,30.26,30.05,8,4,0,0.00
2013-2-17,63.0,47.0,29.0,34.0,26.5,16.0,67,46,29,30.06,29.72,8,3,0,0.00
2013-2-18,59.0,50.7,35.0,52.0,40.1,26.0,81,68,43,30.00,29.47,17,9,0,0.00
2013-2-19,45.0,34.6,25.0,26.0,21.3,18.0,77,59,39,30.23,29.99,10,4,0,0.00
2013-2-20,35.0,31.6,29.0,31.0,22.4,14.0,91,70,49,30.22,29.98,6,3,0,0.00
2013-2-21,36.0,33.0,29.0,35.0,30.4,25.0,96,90,80,29.99,29.60,9,4,0,0.00
2013-2-22,37.0,29.2,22.0,32.0,22.8,18.0,91,77,56,30.04,29.78,10,5,0,0.00
2013-2-23,45.0,31.7,21.0,26.0,22.3,19.0,92,70,45,30.04,29.88,6,1,0,0.00
2013-2-24,59.0,43.0,27.0,36.0,30.4,23.0,89,64,37,29.91,29.73,6,2,0,0.00
2013-2-25,43.0,39.4,37.0,37.0,33.8,30.0,93,81,64,29.78,29.33,10,5,0,0.00
2013-2-26,36.0,33.5,32.0,34.0,31.8,31.0,96,93,90,29.80,29.28,10,7,0,0.00
2013-2-27,39.0,34.2,33.0,33.0,30.2,27.0,93,85,73,29.99,29.76,12,7,0,0.00
2013-2-28,36.0,32.4,29.0,29.0,27.5,26.0,91,82,72,30.12,29.98,8,6,0,0.00